Powrót do katalogu

OPS 4682 DEB

AktywnyPO
NORAD 12102·DEBRIS·🇺🇸 United States

Wystrzelony Apr 3, 1965 z Vandenberg Space Force Base

Loading…

Następne Przeloty (najbliższe 24 godziny)

TLE

ŚwieżeSource: Space-Track

Epoka: Sep 12, 2026, 02:12 UTC

1 12102U 65027G   26255.09187046 -.00000342  00000-0 -11813-2 0  9998
2 12102  90.2574  16.5551 0027575 113.6608  64.5301 12.98796811902012

Śledź OPS 4682 DEB w czasie rzeczywistym z AllMySat

Download on the App Store